This demonstration page uses our WeatherBlox Daily Observations layout. Learn more.

Left ArrowRight Arrow

Hourly Observations for September 28, 2021

Temp ( °F °C ) Dew Point ( °F °C ) Humidity (%) Winds ( mph kmh ) Pressure ( in mb ) Visibility ( mi km ) Precip ( " mm )
12:53 am 00:53 Clear 69 20.6 58 14.4 68 68 S 7 11 29.83 1010 10 16 0.00 0.00
1:53 am 01:53 Clear 69 20.6 59 15 70 70 S 7 11 29.82 1010 10 16 0.00 0.00
2:53 am 02:53 Clear 67 19.4 59 15 76 76 WSW 6 9 29.81 1010 10 16 0.00 0.00
3:53 am 03:53 Clear 64 17.8 58 14.4 81 81 N 3 6 29.80 1009 10 16 0.00 0.00
4:53 am 04:53 Clear 63 17.2 58 14.4 84 84 Calm 29.80 1009 10 16 0.00 0.00
5:53 am 05:53 Clear 62 16.7 57 13.9 84 84 N 5 7 29.80 1009 10 16 0.00 0.00
6:53 am 06:53 Clear 62 16.7 57 13.9 84 84 Calm 29.81 1009 10 16 0.00 0.00
7:53 am 07:53 Sunny 61 16.1 56 13.3 84 84 Calm 29.82 1010 10 16 0.00 0.00
8:53 am 08:53 Sunny 65 18.3 58 14.4 78 78 Calm 29.83 1010 10 16 0.00 0.00
9:53 am 09:53 Mostly Sunny 72 22.2 60 15.6 66 66 WSW 3 6 29.83 1010 10 16 0.00 0.00
10:53 am 10:53 Sunny 77 25 56 13.3 48 48 SSW 6 9 29.83 1010 10 16 0.00 0.00
11:53 am 11:53 Mostly Cloudy 82 27.8 50 10 33 33 W 15 24 29.82 1010 10 16 0.00 0.00
12:53 pm 12:53 Sunny 82 27.8 50 10 33 33 SW 9 15 29.81 1010 10 16 0.00 0.00
1:53 pm 13:53 Cloudy 84 28.9 50 10 31 31 SSW 7 11 29.79 1009 10 16 0.00 0.00
2:53 pm 14:53 Mostly Sunny 88 31.1 49 9.4 26 26 S 16 26 29.75 1007 10 16 0.00 0.00
3:53 pm 15:53 Partly Cloudy 86 30 50 10 29 29 S 16 26 29.72 1006 10 16 0.00 0.00
4:53 pm 16:53 Mostly Sunny 86 30 50 10 29 29 VRB 3 6 29.70 1006 10 16 0.00 0.00
5:53 pm 17:53 Sunny 87 30.6 49 9.4 27 27 WSW 10 17 29.69 1005 10 16 0.00 0.00
6:53 pm 18:53 Sunny 85 29.4 48 8.9 28 28 SW 12 19 29.68 1005 10 16 0.00 0.00
7:53 pm 19:53 Clear 82 27.8 48 8.9 31 31 SW 8 13 29.70 1006 10 16 0.00 0.00
8:53 pm 20:53 Clear 77 25 47 8.3 35 35 WSW 7 11 29.72 1006 10 16 0.00 0.00
9:53 pm 21:53 Clear 71 21.7 46 7.8 41 41 W 8 13 29.72 1007 10 16 0.00 0.00
10:53 pm 22:53 Clear 70 21.1 46 7.8 42 42 WSW 7 11 29.73 1007 10 16 0.00 0.00
11:53 pm 23:53 Clear 69 20.6 46 7.8 44 44 WSW 5 7 29.73 1007 10 16 0.00 0.00

Powered by AerisWeather